Regional Weather Roundup
Issued by NWS Upton, NY

Current Version | Previous Version | Text Only | Print | Product List | Glossary Off
Versions: 1 2 3 4 5 6 7 8 9 10 11 12 13 14 15 16 17 18 19 20 21 22 23 24 25 26 27

000
ASUS41 KOKX 211508
RWROKX

REGIONAL WEATHER ROUNDUP
NATIONAL WEATHER SERVICE NEW YORK NY
1000 AM EST TUE FEB 21 2017

NOTE: "FAIR" INDICATES FEW OR NO CLOUDS BELOW 12,000 FEET WITH NO
SIGNIFICANT WEATHER AND/OR OBSTRUCTIONS TO VISIBILITY.

NYZ071-072-176-178-NJZ106-104-211600-
NEW YORK CITY METRO AREA

CITY           SKY/WX    TMP DP  RH WIND       PRES   REMARKS
Central Park   MOSUNNY   40  20  44 CALM      30.39F
Wall St Helipt NOT AVBL
LaGuardia APRT PTSUNNY   40  22  48 NE8       30.38S WCI  34
Kennedy INTL   PTSUNNY   41  25  53 SE6       30.39F
Breezy Point     N/A     37 N/A N/A E7          N/A  WCI  32
Newark/Liberty PTSUNNY   42  19  39 VRB3      30.37F
Teterboro      MOSUNNY   42  19  39 CALM      30.37F
$$

NYZ177-179-078>081-211600-
LONG ISLAND NEW YORK

CITY           SKY/WX    TMP DP  RH WIND       PRES   REMARKS
Jones Beach      N/A     37 N/A N/A E7          N/A  WCI  32
Matinecock PT  NOT AVBL
Farmingdale    MOSUNNY   41  22  46 SE3       30.38F
MacArthur/ISP  PTSUNNY   41  20  43 SE6       30.37F
Shirley        SUNNY     40  21  46 VRB5      30.39S
Westhampton    SUNNY     40  21  46 S5        30.40S
Southampton    NOT AVBL
Bridgehampton  NOT AVBL
East Hampton     N/A     41  23  48 CALM      30.38R
Montauk          N/A     40  26  57 VRB5      30.38F
$$

NYZ052-065-067-211600-
HUDSON VALLEY

CITY           SKY/WX    TMP DP  RH WIND       PRES   REMARKS
White Plains   CLOUDY    38  16  40 S5        30.35F WCI  34
Newburgh       PTSUNNY   32  18  55 CALM      30.37S
Montgomery     MOSUNNY   34  17  50 CALM      30.35F
Poughkeepsie   CLOUDY    32  16  51 CALM      30.37F
Albany         PTSUNNY   31  17  56 SE6       30.34F WCI  25
$$

NJZ001-105-106-008-010-013-015-019>022-104-211600-
NEW JERSEY

CITY           SKY/WX    TMP DP  RH WIND       PRES   REMARKS
Newark/Liberty PTSUNNY   42  19  39 VRB3      30.37F
Teterboro      MOSUNNY   42  19  39 CALM      30.37F
Caldwell       MOSUNNY   39  18  42 CALM      30.37F
Somerville     MOSUNNY   42  19  39 CALM      30.35F
Linden         NOT AVBL
Sussex         CLOUDY    36  18  48 CALM      30.34F
Andover          N/A     38  18  44 CALM      30.34F
Trenton        MOSUNNY   42  28  57 SE7       30.36F
Millville      MOSUNNY   46  32  58 SE12      30.35F
Atlantic City  MOSUNNY   46  29  51 E9        30.36F
Wrightstown    MOSUNNY   45  29  53 SE7       30.33F
Toms River     SUNNY     45  30  55 S6        30.36F
Belmar         SUNNY     42  31  64 E8        30.37F
$$

PAZ047>061-062-071-211600-
EASTERN PENNSYLVANIA

CITY           SKY/WX    TMP DP  RH WIND       PRES   REMARKS
Philadelphia   PTSUNNY   45  29  53 E7        30.36F
Allentown      CLOUDY    40  16  37 E3        30.35F
Scranton       CLOUDY    40  11  30 SW7       30.28F
$$

CTZ002-004>006-009-010-012-RIZ004-006-007-MAZ004-011-015-211600-
SOUTHERN NEW ENGLAND
 IN CT

CITY           SKY/WX    TMP DP  RH WIND       PRES   REMARKS
Bradley INTL   PTSUNNY   34  15  46 N3        30.38F
Hartford       MOSUNNY   34  17  50 CALM      30.40S
Danbury        MOSUNNY   37  16  42 SE7       30.37F WCI  32
Wtrbury/Oxford MOSUNNY   37  16  41 S7        30.37S WCI  32
Bridgeport     MOSUNNY   39  15  37 E5        30.39F
Meriden        MOSUNNY   37  15  40 CALM      30.39F
New Haven      MOSUNNY   39  17  41 CALM      30.38F
Chester          N/A     39  16  38 CALM      30.37S
Groton         SUNNY     41  21  44 VRB3      30.37F
Wilimantic     SUNNY     36  16  44 CALM      30.38F

 IN RI

CITY           SKY/WX    TMP DP  RH WIND       PRES   REMARKS
Providence     PTSUNNY   39  20  46 NE6       30.37F WCI  35
Block Island   SUNNY     38  28  67 E8        30.37F WCI  32
Westerly       SUNNY     41  16  36 E5        30.37F
 IN MA

CITY           SKY/WX    TMP DP  RH WIND       PRES   REMARKS
Boston         MOSUNNY   38  23  55 E8        30.38F WCI  32
Worcester      SUNNY     34   9  35 CALM      30.32F
Westfield      PTSUNNY   32  15  49 CALM      30.38S
Provincetown   SUNNY     39  25  57 NE9       30.39S WCI  33
Nantucket      SUNNY     41  28  60 N14       30.37S
$$

ANZ330-335-338-340-345-350-353-355-211600-
COASTAL MARINE OBSERVATIONS


STATION/POSITION TIME  SKY/WX   TEMP    WIND        PRES    VSBY  WAVE
                                AIR SEA DIR/SP/G                  HT/PER
                 (UTC)          (F)     (DEG/KT/KT) (MB)    (MI)  (FT/S)
NY HARB ENTRANCE 1350            39 42   80/ 10/ 12 1028.4          2/ 4
20 S FIRE ISLAND 1450            40 42   50/  6/  8 1028.5          3/ 6
GREAT SOUTH BAY  NOT AVBL
23 SSW MONTAUK P 1350            39 45              1029.0          2/ 4
15 E BARNEGAT LI 1430               44                N/A           3/ 5
HUDSON CANYON    1350               49              1028.0          4/ 6
KINGS POINT      1436            37 38              1028.6
EXECUTION ROCKS  NOT AVBL
CENTRAL LI SOUND 1415            36      50/  4/  6   N/A           0
EASTERN LI SOUND NOT AVBL
ROBBINS REEF     1436            41        CALM     1029.0
$$


>>>>>>>>>>>>>>>>>>>>>>>>>>>> KEY <<<<<<<<<<<<<<<<<<<<<<<<<<<
>                                                          <
>     SKY/WX - Sky Condition/Present Weather               <
>     TMP    - Temperature in Fahrenheit                   <
>     DP     - Dew Point in Fahrenheit                     <
>     RH     - Relative Humidity in Percent                <
>     WIND   - Direction (from) and Speed in MPH           <
>     PRES   - Mean Sea Level Pressure (inches of Hg)      <
>     WCI    - Wind Chill Index                            <
>     VSB    - VISIBILITY IN MILES                         <
>     HX     - HEAT INDEX                                  <
>     TC     - TEMPERATURE IN CELSIUS                      <
>     VRB    - VARIABLE WIND DIRECTION                     <
>                                                          <
>>>>>>>>>>>>>>>>>>>>>>>>>>>> KEY <<<<<<<<<<<<<<<<<<<<<<<<<<<




USA.gov is the U.S. government's official web portal to all federal, state and local government web resources and services.